Location: Banksville Park
(38.5557°N, 75.1182°W)
Time: 12:03:54
(UTC+00:00)

Cosmos 2227 - Pass Details

Date: 19 September 2020
Orbit: 836 x 859 km, 71.0° (Epoch: 23 October)

Event Time Altitude Azimuth Distance (km) Brightness Sun altitude
Rises 09:40:12 0° 332° (NNW) 3,407 7.2 -13.6°
Reaches altitude 10° 09:42:42 10° 328° (NNW) 2,465 6.4 -13.1°
Maximum altitude 09:48:12 55° 252° (WSW) 1,000 4.2 -12.0°
Drops below altitude 10° 09:53:39 10° 176° (S) 2,440 6.5 -11.0°
Sets 09:56:06 0° 172° (S) 3,369 7.3 -10.5°
